COSMOS 2251 DEB, 34760

Orbit data source: Space-Track

COSMOS 2251 DEB, 34760 is space debris in LEO originally from a launch on Wed, 16 Jun 1993 UTC launched from the Plesetsk Missile And Space Complex (PKMTR). The debris from Iridium 33, an American commercial communications satellite, has been tracked extensively since its accidental collision with the defunct Russian satellite Cosmos 2251 in 2009. This event, occurring at high speed in low Earth orbit (LEO), generated thousands of pieces of space debris, significantly increasing the risk of further collisions. The Iridium 33 debris cloud has impacted space traffic management and orbital debris mitigation strategies, making it a subject of ongoing study in space situational awareness.

Loading next visibility...
COSMOS 2251 DEB details
Identifier
34760, 1993-036AAE
Orbit
LEO
Last TLE update1 day ago
Origin
Flag of CISKVR (CIS)
ManufacturerUnknown
MissionSpacecraft
Bus & MotorUnknown
MassUnknown
Launch date (UTC)
1993-06-16 (32 years ago)
Launch vehicleUnknown
Launch site
Plesetsk Missile And Space Complex (PKMTR)
Object type
Payload
Rocket body
Debris
Shape & HBRUnknown
Radar Cross SectionSmall (<0.1 m²)

Expand to show TLE details & history

TLE from 1 day ago
0 COSMOS 2251 DEB
1 34760U 93036AAE 24360.31936640  .00002264  00000-0  10571-2 0  9998
2 34760  74.0623 210.7482 0097980 349.7765 122.5771 14.18430153816899
Epoch: 2024-12-25T07:39Z
Definitive object data (Epoch: 2024-12-25T07:39:53.256Z)
Latitude62.1305°
Longitude148.96796°
Altitude879.485 km
Speed7.399 km/s
True Right ascension23h 53m 01s
True Declination61° 59' 26"
Sunlit
Object was in daylight at TLE epoch
Visualization TLE readout
Latitude-67.06938°
Longitude-42.66271°
Altitude820.527 km
Speed7.46 km/s
Apparent Right ascension19h 18m 58s
Apparent Declination-75° 30' 43"
Sunlit
Object is in daylight
Visualization observer readout
Local Sidereal Time09:13:54
Azimuth168.699° S
Elevation-52.14°
Doppler factor1
Orbital elements
Apogee altitude898.916 km
Perigee altitude757.699 km
Semi-major axis7,206.445 km
Eccentricity0.009798
Inclination74.0623°
RAAN210.7482°
Arg. of periapsis349.7765°
True anomaly123.51698°
Mean anomaly122.5771°
Eccentric anomaly123.04766°
Mean motion3.54782 °/min
BSTAR0.0010571
Orbital period101.47 mins
Loading maneuver chart data...

COSMOS 2251 DEB Visibility forecast

Observer location: undefined°, undefined

Span
Click to sort rows by Start time (UTC) header in descending order
Start Az.
Max El. time (UTC)
Max El. Az.
Max El.
End time (UTC)
End Az.
10 mins2024-12-26 15:24:49.056Z199.496° SSW2024-12-26 15:29:49.056Z358.167° N44.297°2024-12-26 15:34:49.056Z18.011° NNE
7 mins2024-12-27 00:19:49.056Z17.528° NNE2024-12-27 00:22:49.056Z58.541° ENE23.776°2024-12-27 00:26:49.056Z109.533° ESE
9 mins2024-12-27 02:02:49.056Z320.908° NNW2024-12-27 02:06:49.056Z249.034° W35.732°2024-12-27 02:11:49.056Z187.175° SSW
|